Location: Kellogg
(38.0159°N, 90.0546°W)
Time: 14:57:30
(UTC+00:00)

Altair - Pass Details

Date: 21 September 2024
Orbit: 1501 x 1682 km, 47.2° (Epoch: 15 October)

Event Time Altitude Azimuth Distance (km) Brightness Sun altitude
Exits shadow 09:15:50 33° 298° (WNW) 2,528 8.3 -29.6°
Maximum altitude 09:20:15 51° 354° (N) 2,021 8.1 -28.9°
Drops below altitude 10° 09:30:07 10° 69° (ENE) 3,946 10.6 -27.1°
Sets 09:33:27 0° 74° (ENE) 4,929 11.4 -26.5°
